Time,TemperatureF,DewpointF,PressureIn,WindDirection,WindDirectionDegrees,WindSpeedMPH,WindSpeedGustMPH,Humidity,HourlyPrecipIn,Conditions,Clouds,dailyrainin,SoftwareType,DateUTC
2013-10-02 00:02:00,62.1,54.1,29.97,ESE,112,0.0,2.0,75,0.00,,,0.00,meteohub,2013-10-02 04:02:00,
2013-10-02 00:07:00,62.2,54.1,29.97,ESE,112,0.0,2.0,75,0.00,,,0.00,meteohub,2013-10-02 04:07:00,
2013-10-02 00:12:00,62.1,54.1,29.97,East,90,0.0,1.0,75,0.00,,,0.00,meteohub,2013-10-02 04:12:00,
2013-10-02 00:17:00,62.4,54.3,29.97,ESE,112,0.0,3.0,75,0.00,,,0.00,meteohub,2013-10-02 04:17:00,
2013-10-02 00:22:00,62.4,54.0,29.97,SSE,158,0.0,3.0,74,0.00,,,0.00,meteohub,2013-10-02 04:22:00,
2013-10-02 00:27:00,62.6,53.8,29.97,SE,135,0.0,2.0,73,0.00,,,0.00,meteohub,2013-10-02 04:27:00,
2013-10-02 00:32:00,62.2,53.4,29.97,ESE,112,0.0,2.0,73,0.00,,,0.00,meteohub,2013-10-02 04:32:00,
2013-10-02 00:37:00,62.1,53.2,29.97,South,180,0.0,0.0,73,0.00,,,0.00,meteohub,2013-10-02 04:37:00,
2013-10-02 00:42:00,62.1,53.2,29.97,East,90,0.0,1.0,73,0.00,,,0.00,meteohub,2013-10-02 04:42:00,
2013-10-02 00:47:00,62.2,53.4,29.97,South,180,0.0,2.0,73,0.00,,,0.00,meteohub,2013-10-02 04:47:00,
2013-10-02 00:52:00,62.1,53.2,29.97,SSW,202,2.0,2.0,73,0.00,,,0.00,meteohub,2013-10-02 04:52:00,
2013-10-02 00:57:00,61.9,53.1,29.97,NE,45,0.0,3.0,73,0.00,,,0.00,meteohub,2013-10-02 04:57:00,
2013-10-02 01:02:00,61.5,52.9,29.97,SW,225,0.0,3.0,73,0.00,,,0.00,meteohub,2013-10-02 05:02:00,
2013-10-02 01:07:00,61.2,52.5,29.97,ENE,68,0.0,3.0,73,0.00,,,0.00,meteohub,2013-10-02 05:07:00,
2013-10-02 01:12:00,60.8,52.2,29.97,ENE,68,0.0,2.0,73,0.00,,,0.00,meteohub,2013-10-02 05:12:00,
2013-10-02 01:17:00,60.6,52.3,29.97,SE,135,0.0,2.0,74,0.00,,,0.00,meteohub,2013-10-02 05:17:00,
2013-10-02 01:22:00,60.4,52.2,29.97,East,90,0.0,2.0,74,0.00,,,0.00,meteohub,2013-10-02 05:22:00,
2013-10-02 01:27:00,60.1,52.2,29.97,East,90,1.0,1.0,75,0.00,,,0.00,meteohub,2013-10-02 05:27:00,
2013-10-02 01:32:00,60.4,53.2,29.97,ENE,68,0.0,2.0,77,0.00,,,0.00,meteohub,2013-10-02 05:32:00,
2013-10-02 01:37:00,60.4,53.2,29.97,SE,135,0.0,2.0,77,0.00,,,0.00,meteohub,2013-10-02 05:37:00,
2013-10-02 01:42:00,60.1,52.5,29.97,ENE,68,0.0,2.0,76,0.00,,,0.00,meteohub,2013-10-02 05:42:00,
2013-10-02 01:47:00,59.4,51.8,29.97,ESE,112,0.0,3.0,76,0.00,,,0.00,meteohub,2013-10-02 05:47:00,
2013-10-02 01:52:00,59.0,51.4,29.97,NNE,22,1.0,3.0,76,0.00,,,0.00,meteohub,2013-10-02 05:52:00,
2013-10-02 01:57:00,59.0,51.8,29.97,ESE,112,0.0,2.0,77,0.00,,,0.00,meteohub,2013-10-02 05:57:00,
2013-10-02 02:02:00,58.8,52.0,29.97,SSE,158,0.0,2.0,78,0.00,,,0.00,meteohub,2013-10-02 06:02:00,
2013-10-02 02:07:00,58.6,51.8,29.97,SW,225,1.0,2.0,78,0.00,,,0.00,meteohub,2013-10-02 06:07:00,
2013-10-02 02:12:00,58.6,51.8,29.97,ESE,112,0.0,2.0,78,0.00,,,0.00,meteohub,2013-10-02 06:12:00,
2013-10-02 02:17:00,58.6,51.8,29.97,East,90,0.0,2.0,78,0.00,,,0.00,meteohub,2013-10-02 06:17:00,
2013-10-02 02:22:00,58.5,51.6,29.97,East,90,0.0,2.0,78,0.00,,,0.00,meteohub,2013-10-02 06:22:00,
2013-10-02 02:27:00,58.1,51.3,29.97,ENE,68,0.0,1.0,78,0.00,,,0.00,meteohub,2013-10-02 06:27:00,
2013-10-02 02:32:00,58.3,51.8,29.97,NNW,338,0.0,1.0,79,0.00,,,0.00,meteohub,2013-10-02 06:32:00,
2013-10-02 02:37:00,58.1,51.6,29.97,SSE,158,0.0,2.0,79,0.00,,,0.00,meteohub,2013-10-02 06:37:00,
2013-10-02 02:42:00,58.1,51.6,29.97,East,90,0.0,2.0,79,0.00,,,0.00,meteohub,2013-10-02 06:42:00,
2013-10-02 02:47:00,58.5,52.3,29.97,SW,225,0.0,2.0,80,0.00,,,0.00,meteohub,2013-10-02 06:47:00,
2013-10-02 02:52:00,58.5,52.0,29.97,West,270,0.0,1.0,79,0.00,,,0.00,meteohub,2013-10-02 06:52:00,
2013-10-02 02:57:00,57.9,51.4,29.94,West,270,0.0,3.0,79,0.00,,,0.00,meteohub,2013-10-02 06:57:00,
2013-10-02 03:02:00,57.4,50.9,29.94,SSW,202,0.0,3.0,79,0.00,,,0.00,meteohub,2013-10-02 07:02:00,
2013-10-02 03:07:00,57.2,51.1,29.94,NE,45,1.0,3.0,80,0.00,,,0.00,meteohub,2013-10-02 07:07:00,
2013-10-02 03:12:00,58.5,53.1,29.94,NNE,22,2.0,2.0,82,0.00,,,0.00,meteohub,2013-10-02 07:12:00,
2013-10-02 03:17:00,58.5,52.3,29.94,WNW,292,1.0,2.0,80,0.00,,,0.00,meteohub,2013-10-02 07:17:00,
2013-10-02 03:22:00,57.6,50.7,29.94,WSW,248,0.0,2.0,78,0.00,,,0.00,meteohub,2013-10-02 07:22:00,
2013-10-02 03:27:00,57.0,50.5,29.97,WSW,248,2.0,2.0,79,0.00,,,0.00,meteohub,2013-10-02 07:27:00,
2013-10-02 03:32:00,56.8,51.1,29.97,SSE,158,2.0,2.0,81,0.00,,,0.00,meteohub,2013-10-02 07:32:00,
2013-10-02 03:37:00,57.2,51.4,29.97,NW,315,0.0,3.0,81,0.00,,,0.00,meteohub,2013-10-02 07:37:00,
2013-10-02 03:42:00,57.0,51.3,29.94,SSW,202,0.0,3.0,81,0.00,,,0.00,meteohub,2013-10-02 07:42:00,
2013-10-02 03:47:00,57.0,51.3,29.94,ESE,112,0.0,3.0,81,0.00,,,0.00,meteohub,2013-10-02 07:47:00,
2013-10-02 03:52:00,57.0,51.3,29.94,East,90,0.0,0.0,81,0.00,,,0.00,meteohub,2013-10-02 07:52:00,
2013-10-02 03:57:00,57.4,51.6,29.97,SE,135,0.0,1.0,81,0.00,,,0.00,meteohub,2013-10-02 07:57:00,
2013-10-02 04:02:00,57.9,52.5,29.97,SSE,158,0.0,1.0,82,0.00,,,0.00,meteohub,2013-10-02 08:02:00,
2013-10-02 04:07:00,58.1,52.3,29.97,South,180,0.0,2.0,81,0.00,,,0.00,meteohub,2013-10-02 08:07:00,
2013-10-02 04:12:00,58.1,52.3,29.97,East,90,0.0,2.0,81,0.00,,,0.00,meteohub,2013-10-02 08:12:00,
2013-10-02 04:17:00,58.1,52.3,29.97,East,90,0.0,1.0,81,0.00,,,0.00,meteohub,2013-10-02 08:17:00,
2013-10-02 04:22:00,58.1,52.7,29.97,ESE,112,2.0,0.0,82,0.00,,,0.00,meteohub,2013-10-02 08:22:00,
2013-10-02 04:27:00,58.3,52.5,29.97,ESE,112,0.0,2.0,81,0.00,,,0.00,meteohub,2013-10-02 08:27:00,
2013-10-02 04:32:00,58.3,52.5,29.97,East,90,0.0,2.0,81,0.00,,,0.00,meteohub,2013-10-02 08:32:00,
2013-10-02 04:37:00,58.1,52.3,29.97,SE,135,0.0,2.0,81,0.00,,,0.00,meteohub,2013-10-02 08:37:00,
2013-10-02 04:42:00,58.1,52.3,29.97,ESE,112,0.0,2.0,81,0.00,,,0.00,meteohub,2013-10-02 08:42:00,
2013-10-02 04:47:00,57.9,52.2,29.97,SSE,158,0.0,2.0,81,0.00,,,0.00,meteohub,2013-10-02 08:47:00,
2013-10-02 04:52:00,57.6,51.4,29.97,ESE,112,0.0,1.0,80,0.00,,,0.00,meteohub,2013-10-02 08:52:00,
2013-10-02 04:57:00,57.6,51.8,29.97,ENE,68,0.0,1.0,81,0.00,,,0.00,meteohub,2013-10-02 08:57:00,
2013-10-02 05:02:00,57.6,51.8,29.97,East,90,1.0,1.0,81,0.00,,,0.00,meteohub,2013-10-02 09:02:00,
2013-10-02 05:07:00,56.8,50.7,29.97,SSE,158,0.0,2.0,80,0.00,,,0.00,meteohub,2013-10-02 09:07:00,
2013-10-02 05:12:00,56.7,50.9,29.97,East,90,0.0,2.0,81,0.00,,,0.00,meteohub,2013-10-02 09:12:00,
2013-10-02 05:17:00,56.7,51.3,29.97,ESE,112,0.0,2.0,82,0.00,,,0.00,meteohub,2013-10-02 09:17:00,
2013-10-02 05:22:00,56.7,51.6,29.97,ESE,112,0.0,0.0,83,0.00,,,0.00,meteohub,2013-10-02 09:22:00,
2013-10-02 05:27:00,56.8,51.8,29.97,ENE,68,1.0,0.0,83,0.00,,,0.00,meteohub,2013-10-02 09:27:00,
2013-10-02 05:32:00,56.8,52.0,29.97,ENE,68,1.0,2.0,84,0.00,,,0.00,meteohub,2013-10-02 09:32:00,
2013-10-02 05:37:00,56.8,52.3,29.97,ESE,112,0.0,2.0,85,0.00,,,0.00,meteohub,2013-10-02 09:37:00,
2013-10-02 05:42:00,56.8,52.3,29.97,East,90,0.0,2.0,85,0.00,,,0.00,meteohub,2013-10-02 09:42:00,
2013-10-02 05:47:00,56.8,52.0,29.97,ENE,68,0.0,2.0,84,0.00,,,0.00,meteohub,2013-10-02 09:47:00,
2013-10-02 05:52:00,56.3,50.9,29.97,SSE,158,0.0,0.0,82,0.00,,,0.00,meteohub,2013-10-02 09:52:00,
2013-10-02 05:57:00,56.1,51.1,29.97,East,90,0.0,0.0,83,0.00,,,0.00,meteohub,2013-10-02 09:57:00,
2013-10-02 06:02:00,56.1,51.1,29.97,ENE,68,0.0,0.0,83,0.00,,,0.00,meteohub,2013-10-02 10:02:00,
2013-10-02 06:07:00,56.3,51.6,29.97,ESE,112,0.0,2.0,84,0.00,,,0.00,meteohub,2013-10-02 10:07:00,
2013-10-02 06:12:00,56.5,51.8,29.97,East,90,0.0,2.0,84,0.00,,,0.00,meteohub,2013-10-02 10:12:00,
2013-10-02 06:17:00,56.3,51.3,29.97,South,180,1.0,2.0,83,0.00,,,0.00,meteohub,2013-10-02 10:17:00,
2013-10-02 06:22:00,55.8,51.3,29.97,SSW,202,0.0,2.0,85,0.00,,,0.00,meteohub,2013-10-02 10:22:00,
2013-10-02 06:27:00,56.7,52.9,29.97,North,0,0.0,2.0,87,0.00,,,0.00,meteohub,2013-10-02 10:27:00,
2013-10-02 06:32:00,55.9,51.3,29.97,WSW,248,0.0,2.0,84,0.00,,,0.00,meteohub,2013-10-02 10:32:00,
2013-10-02 06:37:00,55.0,50.0,29.97,WNW,292,0.0,1.0,83,0.00,,,0.00,meteohub,2013-10-02 10:37:00,
2013-10-02 06:42:00,55.2,50.7,29.97,South,180,0.0,2.0,85,0.00,,,0.00,meteohub,2013-10-02 10:42:00,
2013-10-02 06:47:00,56.1,52.3,29.97,ESE,112,0.0,2.0,87,0.00,,,0.00,meteohub,2013-10-02 10:47:00,
2013-10-02 06:52:00,56.8,53.6,29.97,SW,225,0.0,2.0,89,0.00,,,0.00,meteohub,2013-10-02 10:52:00,
2013-10-02 06:57:00,56.1,51.4,29.97,ESE,112,0.0,2.0,84,0.00,,,0.00,meteohub,2013-10-02 10:57:00,
2013-10-02 07:02:00,56.3,52.2,29.97,SSE,158,2.0,2.0,86,0.00,,,0.00,meteohub,2013-10-02 11:02:00,
2013-10-02 07:07:00,56.7,53.4,29.97,SW,225,2.0,2.0,89,0.00,,,0.00,meteohub,2013-10-02 11:07:00,
2013-10-02 07:12:00,57.0,53.8,29.97,SE,135,1.0,2.0,89,0.00,,,0.00,meteohub,2013-10-02 11:12:00,
2013-10-02 07:17:00,57.4,53.8,29.97,ESE,112,2.0,3.0,88,0.00,,,0.00,meteohub,2013-10-02 11:17:00,
2013-10-02 07:22:00,57.6,54.0,29.97,SSW,202,0.0,3.0,88,0.00,,,0.00,meteohub,2013-10-02 11:22:00,
2013-10-02 07:27:00,57.9,54.1,29.97,SW,225,2.0,4.0,87,0.00,,,0.00,meteohub,2013-10-02 11:27:00,
2013-10-02 07:32:00,58.1,54.0,29.97,WNW,292,1.0,4.0,86,0.00,,,0.00,meteohub,2013-10-02 11:32:00,
2013-10-02 07:37:00,58.3,53.8,29.97,ESE,112,1.0,4.0,85,0.00,,,0.00,meteohub,2013-10-02 11:37:00,
2013-10-02 07:42:00,58.5,54.0,29.97,SSW,202,0.0,3.0,85,0.00,,,0.00,meteohub,2013-10-02 11:42:00,
2013-10-02 07:47:00,58.6,53.8,29.97,South,180,0.0,3.0,84,0.00,,,0.00,meteohub,2013-10-02 11:47:00,
2013-10-02 07:52:00,58.8,54.0,29.97,SW,225,0.0,2.0,84,0.00,,,0.00,meteohub,2013-10-02 11:52:00,
2013-10-02 07:57:00,58.8,54.0,30.00,SSW,202,1.0,3.0,84,0.00,,,0.00,meteohub,2013-10-02 11:57:00,
2013-10-02 08:02:00,59.2,54.3,30.00,WSW,248,2.0,3.0,84,0.00,,,0.00,meteohub,2013-10-02 12:02:00,
2013-10-02 08:07:00,59.2,54.3,30.00,NE,45,0.0,3.0,84,0.00,,,0.00,meteohub,2013-10-02 12:07:00,
2013-10-02 08:12:00,59.4,54.5,29.97,SSW,202,2.0,3.0,84,0.00,,,0.00,meteohub,2013-10-02 12:12:00,
2013-10-02 08:17:00,59.7,54.5,29.97,SW,225,0.0,3.0,83,0.00,,,0.00,meteohub,2013-10-02 12:17:00,
2013-10-02 08:22:00,60.1,54.9,29.97,ESE,112,1.0,2.0,83,0.00,,,0.00,meteohub,2013-10-02 12:22:00,
2013-10-02 08:27:00,60.3,54.7,30.00,WNW,292,0.0,2.0,82,0.00,,,0.00,meteohub,2013-10-02 12:27:00,
2013-10-02 08:32:00,60.6,55.4,30.00,WSW,248,0.0,3.0,83,0.00,,,0.00,meteohub,2013-10-02 12:32:00,
2013-10-02 08:37:00,61.2,55.6,30.00,WSW,248,2.0,4.0,82,0.00,,,0.00,meteohub,2013-10-02 12:37:00,
2013-10-02 08:42:00,61.7,55.8,30.00,WNW,292,2.0,4.0,81,0.00,,,0.00,meteohub,2013-10-02 12:42:00,
2013-10-02 08:47:00,61.7,55.4,30.00,SSW,202,3.0,3.0,80,0.00,,,0.00,meteohub,2013-10-02 12:47:00,
2013-10-02 08:52:00,62.1,55.4,30.00,WSW,248,1.0,3.0,79,0.00,,,0.00,meteohub,2013-10-02 12:52:00,
2013-10-02 08:57:00,62.4,56.1,30.00,WNW,292,1.0,3.0,80,0.00,,,0.00,meteohub,2013-10-02 12:57:00,
2013-10-02 09:02:00,62.8,55.8,30.00,SW,225,2.0,3.0,78,0.00,,,0.00,meteohub,2013-10-02 13:02:00,
2013-10-02 09:07:00,63.1,56.1,30.00,ESE,112,1.0,5.0,78,0.00,,,0.00,meteohub,2013-10-02 13:07:00,
2013-10-02 09:12:00,63.7,56.3,29.97,WSW,248,1.0,5.0,77,0.00,,,0.00,meteohub,2013-10-02 13:12:00,
2013-10-02 09:17:00,63.9,56.1,29.97,SSW,202,3.0,5.0,76,0.00,,,0.00,meteohub,2013-10-02 13:17:00,
2013-10-02 09:22:00,64.4,56.7,29.97,ESE,112,3.0,4.0,76,0.00,,,0.00,meteohub,2013-10-02 13:22:00,
2013-10-02 09:27:00,64.8,56.3,29.97,WSW,248,2.0,4.0,74,0.00,,,0.00,meteohub,2013-10-02 13:27:00,
2013-10-02 09:32:00,65.3,56.5,29.97,South,180,2.0,4.0,73,0.00,,,0.00,meteohub,2013-10-02 13:32:00,
2013-10-02 09:37:00,65.8,57.0,29.97,WNW,292,0.0,5.0,73,0.00,,,0.00,meteohub,2013-10-02 13:37:00,
2013-10-02 09:42:00,66.2,56.5,29.97,ENE,68,1.0,5.0,71,0.00,,,0.00,meteohub,2013-10-02 13:42:00,
2013-10-02 09:47:00,66.9,57.2,29.97,SW,225,4.0,5.0,71,0.00,,,0.00,meteohub,2013-10-02 13:47:00,
2013-10-02 09:52:00,67.5,57.7,29.97,SW,225,0.0,4.0,71,0.00,,,0.00,meteohub,2013-10-02 13:52:00,
2013-10-02 09:57:00,68.0,58.3,29.97,SSW,202,2.0,4.0,71,0.00,,,0.00,meteohub,2013-10-02 13:57:00,
2013-10-02 10:02:00,69.3,59.0,29.97,WSW,248,2.0,4.0,70,0.00,,,0.00,meteohub,2013-10-02 14:02:00,
2013-10-02 10:07:00,69.6,59.0,29.97,NW,315,1.0,5.0,69,0.00,,,0.00,meteohub,2013-10-02 14:07:00,
2013-10-02 10:17:00,70.2,58.6,29.97,NW,315,2.0,5.0,67,0.00,,,0.00,meteohub,2013-10-02 14:17:00,
2013-10-02 10:22:00,70.3,57.6,29.97,ENE,68,3.0,3.0,64,0.00,,,0.00,meteohub,2013-10-02 14:22:00,
2013-10-02 10:27:00,70.7,58.3,29.94,WNW,292,2.0,3.0,65,0.00,,,0.00,meteohub,2013-10-02 14:27:00,
2013-10-02 10:32:00,71.2,57.9,29.94,SW,225,2.0,3.0,63,0.00,,,0.00,meteohub,2013-10-02 14:32:00,
2013-10-02 10:37:00,72.0,58.6,29.94,South,180,1.0,5.0,63,0.00,,,0.00,meteohub,2013-10-02 14:37:00,
2013-10-02 10:42:00,72.1,57.9,29.97,North,0,1.0,5.0,61,0.00,,,0.00,meteohub,2013-10-02 14:42:00,
2013-10-02 10:47:00,72.3,57.7,29.97,NW,315,2.0,3.0,60,0.00,,,0.00,meteohub,2013-10-02 14:47:00,
2013-10-02 10:52:00,72.1,57.0,29.97,WSW,248,3.0,3.0,59,0.00,,,0.00,meteohub,2013-10-02 14:52:00,
2013-10-02 10:57:00,72.7,57.0,29.97,NW,315,1.0,4.0,58,0.00,,,0.00,meteohub,2013-10-02 14:57:00,
2013-10-02 11:02:00,72.9,56.7,29.97,NNE,22,2.0,6.0,57,0.00,,,0.00,meteohub,2013-10-02 15:02:00,
2013-10-02 11:07:00,73.6,57.4,29.97,SW,225,5.0,6.0,57,0.00,,,0.00,meteohub,2013-10-02 15:07:00,
2013-10-02 11:12:00,73.9,57.2,29.97,NW,315,2.0,5.0,56,0.00,,,0.00,meteohub,2013-10-02 15:12:00,
2013-10-02 11:17:00,74.7,57.4,29.97,NW,315,1.0,5.0,55,0.00,,,0.00,meteohub,2013-10-02 15:17:00,
2013-10-02 11:22:00,74.5,56.3,29.97,NNW,338,2.0,5.0,53,0.00,,,0.00,meteohub,2013-10-02 15:22:00,
2013-10-02 11:27:00,74.7,56.8,29.94,NNW,338,1.0,4.0,54,0.00,,,0.00,meteohub,2013-10-02 15:27:00,
2013-10-02 11:32:00,75.0,57.2,29.94,NNW,338,2.0,5.0,54,0.00,,,0.00,meteohub,2013-10-02 15:32:00,
2013-10-02 11:37:00,74.8,55.0,29.94,NNW,338,1.0,6.0,50,0.00,,,0.00,meteohub,2013-10-02 15:37:00,
2013-10-02 11:42:00,74.5,54.7,29.94,NW,315,3.0,6.0,50,0.00,,,0.00,meteohub,2013-10-02 15:42:00,
2013-10-02 11:47:00,75.4,55.9,29.94,WSW,248,6.0,6.0,51,0.00,,,0.00,meteohub,2013-10-02 15:47:00,
2013-10-02 11:52:00,76.1,56.1,29.94,NW,315,2.0,6.0,50,0.00,,,0.00,meteohub,2013-10-02 15:52:00,
2013-10-02 11:57:00,75.9,55.4,29.94,NW,315,2.0,6.0,49,0.00,,,0.00,meteohub,2013-10-02 15:57:00,
2013-10-02 12:02:00,75.9,55.9,29.94,NW,315,4.0,6.0,50,0.00,,,0.00,meteohub,2013-10-02 16:02:00,
2013-10-02 12:07:00,75.4,54.9,29.94,NW,315,2.0,6.0,49,0.00,,,0.00,meteohub,2013-10-02 16:07:00,
2013-10-02 12:12:00,74.7,54.3,29.94,ENE,68,2.0,6.0,49,0.00,,,0.00,meteohub,2013-10-02 16:12:00,
2013-10-02 12:17:00,74.1,53.8,29.94,NW,315,1.0,6.0,49,0.00,,,0.00,meteohub,2013-10-02 16:17:00,
2013-10-02 12:22:00,75.0,55.0,29.94,West,270,3.0,4.0,50,0.00,,,0.00,meteohub,2013-10-02 16:22:00,
2013-10-02 12:27:00,75.4,55.4,29.97,NW,315,2.0,4.0,50,0.00,,,0.00,meteohub,2013-10-02 16:27:00,
2013-10-02 12:32:00,76.3,55.8,29.97,NW,315,1.0,4.0,49,0.00,,,0.00,meteohub,2013-10-02 16:32:00,
2013-10-02 12:37:00,76.1,55.6,29.97,WNW,292,1.0,4.0,49,0.00,,,0.00,meteohub,2013-10-02 16:37:00,
2013-10-02 12:42:00,75.9,55.4,29.94,ENE,68,2.0,4.0,49,0.00,,,0.00,meteohub,2013-10-02 16:42:00,
2013-10-02 12:47:00,75.4,53.8,29.94,North,0,2.0,4.0,47,0.00,,,0.00,meteohub,2013-10-02 16:47:00,
2013-10-02 12:52:00,74.7,54.3,29.94,NW,315,3.0,5.0,49,0.00,,,0.00,meteohub,2013-10-02 16:52:00,
2013-10-02 12:57:00,74.7,54.9,29.94,NW,315,1.0,5.0,50,0.00,,,0.00,meteohub,2013-10-02 16:57:00,
2013-10-02 13:02:00,74.5,54.7,29.94,NNW,338,2.0,5.0,50,0.00,,,0.00,meteohub,2013-10-02 17:02:00,
2013-10-02 13:07:00,74.7,55.4,29.94,NW,315,2.0,5.0,51,0.00,,,0.00,meteohub,2013-10-02 17:07:00,
2013-10-02 13:12:00,74.5,55.2,29.91,NNW,338,2.0,5.0,51,0.00,,,0.00,meteohub,2013-10-02 17:12:00,
2013-10-02 13:17:00,74.7,55.9,29.91,NW,315,3.0,3.0,52,0.00,,,0.00,meteohub,2013-10-02 17:17:00,
2013-10-02 13:22:00,74.8,56.1,29.91,WSW,248,1.0,5.0,52,0.00,,,0.00,meteohub,2013-10-02 17:22:00,
2013-10-02 13:27:00,75.2,56.3,29.94,SW,225,2.0,5.0,52,0.00,,,0.00,meteohub,2013-10-02 17:27:00,
2013-10-02 13:32:00,75.4,55.9,29.94,NNE,22,2.0,6.0,51,0.00,,,0.00,meteohub,2013-10-02 17:32:00,
2013-10-02 13:37:00,75.6,56.1,29.94,NE,45,2.0,6.0,51,0.00,,,0.00,meteohub,2013-10-02 17:37:00,
2013-10-02 13:42:00,75.7,55.8,29.97,West,270,2.0,6.0,50,0.00,,,0.00,meteohub,2013-10-02 17:42:00,
2013-10-02 13:47:00,75.7,54.7,29.97,NW,315,2.0,6.0,48,0.00,,,0.00,meteohub,2013-10-02 17:47:00,
2013-10-02 13:52:00,75.7,54.7,29.97,WNW,292,2.0,6.0,48,0.00,,,0.00,meteohub,2013-10-02 17:52:00,
2013-10-02 13:57:00,75.9,55.4,29.94,NNE,22,2.0,3.0,49,0.00,,,0.00,meteohub,2013-10-02 17:57:00,
2013-10-02 14:02:00,75.9,55.4,29.94,WSW,248,3.0,4.0,49,0.00,,,0.00,meteohub,2013-10-02 18:02:00,
2013-10-02 14:07:00,75.9,54.9,29.94,NNW,338,2.0,4.0,48,0.00,,,0.00,meteohub,2013-10-02 18:07:00,
2013-10-02 14:12:00,75.9,55.4,29.94,NNW,338,1.0,4.0,49,0.00,,,0.00,meteohub,2013-10-02 18:12:00,
2013-10-02 14:17:00,75.9,54.3,29.94,NW,315,2.0,4.0,47,0.00,,,0.00,meteohub,2013-10-02 18:17:00,
2013-10-02 14:22:00,75.9,54.9,29.94,NW,315,2.0,4.0,48,0.00,,,0.00,meteohub,2013-10-02 18:22:00,
2013-10-02 14:27:00,75.9,54.9,29.94,NW,315,3.0,4.0,48,0.00,,,0.00,meteohub,2013-10-02 18:27:00,
2013-10-02 14:32:00,75.9,54.9,29.94,NNE,22,4.0,4.0,48,0.00,,,0.00,meteohub,2013-10-02 18:32:00,
2013-10-02 14:37:00,75.7,54.7,29.94,SW,225,1.0,4.0,48,0.00,,,0.00,meteohub,2013-10-02 18:37:00,
2013-10-02 14:42:00,76.1,55.0,29.94,NNW,338,2.0,6.0,48,0.00,,,0.00,meteohub,2013-10-02 18:42:00,
2013-10-02 14:47:00,75.9,54.3,29.94,North,0,2.0,6.0,47,0.00,,,0.00,meteohub,2013-10-02 18:47:00,
2013-10-02 14:52:00,75.9,54.9,29.94,West,270,2.0,6.0,48,0.00,,,0.00,meteohub,2013-10-02 18:52:00,
2013-10-02 14:57:00,75.9,54.9,29.94,South,180,6.0,6.0,48,0.00,,,0.00,meteohub,2013-10-02 18:57:00,
2013-10-02 15:02:00,76.1,55.0,29.94,NW,315,2.0,6.0,48,0.00,,,0.00,meteohub,2013-10-02 19:02:00,
2013-10-02 15:07:00,76.1,55.0,29.94,WSW,248,2.0,6.0,48,0.00,,,0.00,meteohub,2013-10-02 19:07:00,
2013-10-02 15:12:00,76.1,55.0,29.94,North,0,2.0,6.0,48,0.00,,,0.00,meteohub,2013-10-02 19:12:00,
2013-10-02 15:17:00,76.1,55.0,29.94,NW,315,1.0,4.0,48,0.00,,,0.00,meteohub,2013-10-02 19:17:00,
2013-10-02 15:22:00,76.3,54.5,29.94,NNE,22,2.0,4.0,47,0.00,,,0.00,meteohub,2013-10-02 19:22:00,
2013-10-02 15:27:00,76.3,54.5,29.94,ENE,68,2.0,4.0,47,0.00,,,0.00,meteohub,2013-10-02 19:27:00,
2013-10-02 15:32:00,76.3,54.0,29.94,NW,315,2.0,4.0,46,0.00,,,0.00,meteohub,2013-10-02 19:32:00,
2013-10-02 15:37:00,76.1,53.8,29.94,NW,315,1.0,4.0,46,0.00,,,0.00,meteohub,2013-10-02 19:37:00,
2013-10-02 15:42:00,76.1,53.8,29.94,NE,45,2.0,4.0,46,0.00,,,0.00,meteohub,2013-10-02 19:42:00,
2013-10-02 15:47:00,75.9,53.6,29.94,NW,315,2.0,5.0,46,0.00,,,0.00,meteohub,2013-10-02 19:47:00,
2013-10-02 15:52:00,75.9,53.6,29.94,NNW,338,0.0,6.0,46,0.00,,,0.00,meteohub,2013-10-02 19:52:00,
2013-10-02 15:57:00,75.7,53.4,29.94,West,270,1.0,6.0,46,0.00,,,0.00,meteohub,2013-10-02 19:57:00,
2013-10-02 16:02:00,75.7,53.4,29.94,West,270,2.0,4.0,46,0.00,,,0.00,meteohub,2013-10-02 20:02:00,
2013-10-02 16:07:00,75.7,53.4,29.94,WSW,248,4.0,4.0,46,0.00,,,0.00,meteohub,2013-10-02 20:07:00,
2013-10-02 16:12:00,75.6,53.4,29.94,North,0,1.0,4.0,46,0.00,,,0.00,meteohub,2013-10-02 20:12:00,
2013-10-02 16:17:00,75.4,53.2,29.94,North,0,3.0,4.0,46,0.00,,,0.00,meteohub,2013-10-02 20:17:00,
2013-10-02 16:22:00,75.2,53.1,29.94,NW,315,2.0,4.0,46,0.00,,,0.00,meteohub,2013-10-02 20:22:00,
2013-10-02 16:27:00,75.0,53.4,29.94,NNW,338,2.0,4.0,47,0.00,,,0.00,meteohub,2013-10-02 20:27:00,
2013-10-02 16:32:00,74.8,53.2,29.94,NW,315,3.0,4.0,47,0.00,,,0.00,meteohub,2013-10-02 20:32:00,
2013-10-02 16:37:00,74.8,53.2,29.94,WNW,292,3.0,4.0,47,0.00,,,0.00,meteohub,2013-10-02 20:37:00,
2013-10-02 16:42:00,74.7,53.6,29.94,NW,315,1.0,4.0,48,0.00,,,0.00,meteohub,2013-10-02 20:42:00,
2013-10-02 16:47:00,74.7,53.6,29.94,NNE,22,2.0,4.0,48,0.00,,,0.00,meteohub,2013-10-02 20:47:00,
2013-10-02 16:52:00,74.7,53.6,29.94,NNW,338,1.0,4.0,48,0.00,,,0.00,meteohub,2013-10-02 20:52:00,
2013-10-02 16:57:00,74.5,54.1,29.94,NE,45,2.0,3.0,49,0.00,,,0.00,meteohub,2013-10-02 20:57:00,
2013-10-02 17:02:00,74.3,54.5,29.94,NNE,22,3.0,4.0,50,0.00,,,0.00,meteohub,2013-10-02 21:02:00,
2013-10-02 17:07:00,73.9,54.1,29.94,NNW,338,0.0,4.0,50,0.00,,,0.00,meteohub,2013-10-02 21:07:00,
2013-10-02 17:12:00,73.9,54.1,29.94,NNW,338,2.0,4.0,50,0.00,,,0.00,meteohub,2013-10-02 21:12:00,
2013-10-02 17:17:00,73.6,53.8,29.94,NE,45,1.0,4.0,50,0.00,,,0.00,meteohub,2013-10-02 21:17:00,
2013-10-02 17:22:00,73.4,53.6,29.94,WSW,248,3.0,4.0,50,0.00,,,0.00,meteohub,2013-10-02 21:22:00,
2013-10-02 17:27:00,73.4,53.6,29.91,West,270,3.0,4.0,50,0.00,,,0.00,meteohub,2013-10-02 21:27:00,
2013-10-02 17:32:00,73.0,53.8,29.91,WNW,292,1.0,4.0,51,0.00,,,0.00,meteohub,2013-10-02 21:32:00,
2013-10-02 17:37:00,72.9,53.6,29.91,NW,315,1.0,4.0,51,0.00,,,0.00,meteohub,2013-10-02 21:37:00,
2013-10-02 17:42:00,72.7,53.6,29.94,NW,315,0.0,6.0,51,0.00,,,0.00,meteohub,2013-10-02 21:42:00,
2013-10-02 17:47:00,72.7,53.6,29.94,NNW,338,1.0,6.0,51,0.00,,,0.00,meteohub,2013-10-02 21:47:00,
2013-10-02 17:52:00,72.3,53.2,29.94,West,270,0.0,6.0,51,0.00,,,0.00,meteohub,2013-10-02 21:52:00,
2013-10-02 17:57:00,72.1,53.6,29.94,ENE,68,2.0,3.0,52,0.00,,,0.00,meteohub,2013-10-02 21:57:00,
2013-10-02 18:02:00,72.1,53.6,29.94,NNW,338,3.0,3.0,52,0.00,,,0.00,meteohub,2013-10-02 22:02:00,
2013-10-02 18:07:00,72.0,53.4,29.94,NNE,22,1.0,3.0,52,0.00,,,0.00,meteohub,2013-10-02 22:07:00,
2013-10-02 18:12:00,71.6,53.1,29.94,NW,315,1.0,3.0,52,0.00,,,0.00,meteohub,2013-10-02 22:12:00,
2013-10-02 18:17:00,71.4,53.4,29.94,North,0,0.0,3.0,53,0.00,,,0.00,meteohub,2013-10-02 22:17:00,
2013-10-02 18:22:00,71.2,53.8,29.94,West,270,0.0,2.0,54,0.00,,,0.00,meteohub,2013-10-02 22:22:00,
2013-10-02 18:27:00,71.1,53.6,29.94,WSW,248,0.0,2.0,54,0.00,,,0.00,meteohub,2013-10-02 22:27:00,
2013-10-02 18:32:00,70.7,53.2,29.94,WSW,248,1.0,2.0,54,0.00,,,0.00,meteohub,2013-10-02 22:32:00,
2013-10-02 18:37:00,70.3,53.4,29.94,West,270,0.0,2.0,55,0.00,,,0.00,meteohub,2013-10-02 22:37:00,
2013-10-02 18:42:00,70.2,53.2,29.94,South,180,0.0,2.0,55,0.00,,,0.00,meteohub,2013-10-02 22:42:00,
2013-10-02 18:47:00,70.0,53.1,29.94,WSW,248,0.0,2.0,55,0.00,,,0.00,meteohub,2013-10-02 22:47:00,
2013-10-02 18:52:00,70.0,53.6,29.94,SW,225,0.0,2.0,56,0.00,,,0.00,meteohub,2013-10-02 22:52:00,
2013-10-02 18:57:00,69.8,53.4,29.94,SSW,202,1.0,2.0,56,0.00,,,0.00,meteohub,2013-10-02 22:57:00,
2013-10-02 19:02:00,69.6,53.8,29.94,North,0,0.0,2.0,57,0.00,,,0.00,meteohub,2013-10-02 23:02:00,
2013-10-02 19:07:00,69.6,53.8,29.94,WSW,248,0.0,2.0,57,0.00,,,0.00,meteohub,2013-10-02 23:07:00,
2013-10-02 19:12:00,69.4,53.6,29.94,SW,225,1.0,2.0,57,0.00,,,0.00,meteohub,2013-10-02 23:12:00,
2013-10-02 19:17:00,69.3,53.8,29.94,WSW,248,0.0,2.0,58,0.00,,,0.00,meteohub,2013-10-02 23:17:00,
2013-10-02 19:22:00,69.1,53.8,29.94,ESE,112,0.0,2.0,58,0.00,,,0.00,meteohub,2013-10-02 23:22:00,
2013-10-02 19:27:00,68.9,53.6,29.94,NW,315,0.0,2.0,58,0.00,,,0.00,meteohub,2013-10-02 23:27:00,
2013-10-02 19:32:00,68.9,53.6,29.94,South,180,2.0,2.0,58,0.00,,,0.00,meteohub,2013-10-02 23:32:00,
2013-10-02 19:37:00,68.9,54.0,29.94,ESE,112,0.0,2.0,59,0.00,,,0.00,meteohub,2013-10-02 23:37:00,
2013-10-02 19:42:00,68.5,53.6,29.94,ESE,112,1.0,2.0,59,0.00,,,0.00,meteohub,2013-10-02 23:42:00,
2013-10-02 19:52:00,68.0,54.1,29.94,SE,135,1.0,2.0,61,0.00,,,0.00,meteohub,2013-10-02 23:52:00,
2013-10-02 19:57:00,67.6,54.1,29.97,SW,225,0.0,2.0,62,0.00,,,0.00,meteohub,2013-10-02 23:57:00,
2013-10-02 20:02:00,67.5,54.0,29.97,ESE,112,1.0,2.0,62,0.00,,,0.00,meteohub,2013-10-03 00:02:00,
2013-10-02 20:07:00,67.3,53.8,29.97,ESE,112,0.0,2.0,62,0.00,,,0.00,meteohub,2013-10-03 00:07:00,
2013-10-02 20:12:00,67.3,53.8,29.97,SSE,158,0.0,1.0,62,0.00,,,0.00,meteohub,2013-10-03 00:12:00,
2013-10-02 20:17:00,67.1,53.6,29.97,SE,135,0.0,1.0,62,0.00,,,0.00,meteohub,2013-10-03 00:17:00,
2013-10-02 20:22:00,67.1,53.6,29.97,SE,135,0.0,2.0,62,0.00,,,0.00,meteohub,2013-10-03 00:22:00,
2013-10-02 20:27:00,67.1,53.6,29.97,ESE,112,0.0,2.0,62,0.00,,,0.00,meteohub,2013-10-03 00:27:00,
2013-10-02 20:32:00,67.1,53.6,29.97,North,0,0.0,2.0,62,0.00,,,0.00,meteohub,2013-10-03 00:32:00,
2013-10-02 20:37:00,67.3,53.8,29.97,NE,45,0.0,2.0,62,0.00,,,0.00,meteohub,2013-10-03 00:37:00,
2013-10-02 20:42:00,67.3,53.8,29.97,WSW,248,1.0,2.0,62,0.00,,,0.00,meteohub,2013-10-03 00:42:00,
2013-10-02 20:47:00,67.3,53.8,29.97,ESE,112,0.0,2.0,62,0.00,,,0.00,meteohub,2013-10-03 00:47:00,
2013-10-02 20:52:00,67.3,53.4,29.97,ESE,112,0.0,2.0,61,0.00,,,0.00,meteohub,2013-10-03 00:52:00,
2013-10-02 20:57:00,67.3,53.4,29.97,West,270,1.0,2.0,61,0.00,,,0.00,meteohub,2013-10-03 00:57:00,
2013-10-02 21:02:00,67.1,53.2,29.97,ENE,68,0.0,2.0,61,0.00,,,0.00,meteohub,2013-10-03 01:02:00,
2013-10-02 21:07:00,67.1,53.2,29.97,SW,225,2.0,2.0,61,0.00,,,0.00,meteohub,2013-10-03 01:07:00,
2013-10-02 21:12:00,66.9,53.4,30.00,ESE,112,0.0,2.0,62,0.00,,,0.00,meteohub,2013-10-03 01:12:00,
2013-10-02 21:17:00,66.7,53.2,30.00,ESE,112,0.0,2.0,62,0.00,,,0.00,meteohub,2013-10-03 01:17:00,
2013-10-02 21:22:00,66.7,53.2,30.00,South,180,1.0,2.0,62,0.00,,,0.00,meteohub,2013-10-03 01:22:00,
2013-10-02 21:27:00,66.6,53.1,30.00,SW,225,0.0,3.0,62,0.00,,,0.00,meteohub,2013-10-03 01:27:00,
2013-10-02 21:32:00,66.6,53.1,30.00,SSW,202,0.0,3.0,62,0.00,,,0.00,meteohub,2013-10-03 01:32:00,
2013-10-02 21:37:00,66.6,53.1,30.00,SW,225,0.0,3.0,62,0.00,,,0.00,meteohub,2013-10-03 01:37:00,
2013-10-02 21:42:00,66.6,53.6,30.00,WSW,248,0.0,2.0,63,0.00,,,0.00,meteohub,2013-10-03 01:42:00,
2013-10-02 21:47:00,66.4,53.4,30.00,East,90,2.0,2.0,63,0.00,,,0.00,meteohub,2013-10-03 01:47:00,
2013-10-02 21:52:00,66.0,53.4,30.00,ENE,68,0.0,2.0,64,0.00,,,0.00,meteohub,2013-10-03 01:52:00,
2013-10-02 21:57:00,65.8,53.8,30.00,East,90,0.0,2.0,65,0.00,,,0.00,meteohub,2013-10-03 01:57:00,
2013-10-02 22:02:00,66.0,54.0,30.00,ENE,68,0.0,2.0,65,0.00,,,0.00,meteohub,2013-10-03 02:02:00,
2013-10-02 22:07:00,66.2,53.6,30.00,West,270,0.0,2.0,64,0.00,,,0.00,meteohub,2013-10-03 02:07:00,
2013-10-02 22:12:00,66.2,53.6,30.00,NE,45,0.0,3.0,64,0.00,,,0.00,meteohub,2013-10-03 02:12:00,
2013-10-02 22:17:00,66.2,53.6,30.00,SE,135,0.0,3.0,64,0.00,,,0.00,meteohub,2013-10-03 02:17:00,
2013-10-02 22:22:00,65.7,53.6,30.00,ENE,68,2.0,3.0,65,0.00,,,0.00,meteohub,2013-10-03 02:22:00,
2013-10-02 22:27:00,65.1,53.1,30.00,East,90,2.0,2.0,65,0.00,,,0.00,meteohub,2013-10-03 02:27:00,
2013-10-02 22:32:00,64.9,52.9,30.00,ENE,68,2.0,2.0,65,0.00,,,0.00,meteohub,2013-10-03 02:32:00,
2013-10-02 22:42:00,64.8,53.1,30.00,SW,225,0.0,2.0,66,0.00,,,0.00,meteohub,2013-10-03 02:42:00,
2013-10-02 22:47:00,64.4,53.2,30.00,ESE,112,0.0,2.0,67,0.00,,,0.00,meteohub,2013-10-03 02:47:00,
2013-10-02 22:52:00,64.4,52.9,30.00,SE,135,0.0,2.0,66,0.00,,,0.00,meteohub,2013-10-03 02:52:00,
2013-10-02 22:57:00,64.4,53.2,30.00,SW,225,0.0,1.0,67,0.00,,,0.00,meteohub,2013-10-03 02:57:00,
2013-10-02 23:02:00,64.2,53.1,30.00,WSW,248,2.0,3.0,67,0.00,,,0.00,meteohub,2013-10-03 03:02:00,
2013-10-02 23:07:00,63.5,52.7,30.00,South,180,1.0,3.0,68,0.00,,,0.00,meteohub,2013-10-03 03:07:00,
2013-10-02 23:12:00,63.5,52.7,30.03,NE,45,2.0,3.0,68,0.00,,,0.00,meteohub,2013-10-03 03:12:00,
2013-10-02 23:17:00,63.5,52.7,30.03,SSE,158,3.0,3.0,68,0.00,,,0.00,meteohub,2013-10-03 03:17:00,
2013-10-02 23:22:00,63.7,52.9,30.03,SSE,158,2.0,3.0,68,0.00,,,0.00,meteohub,2013-10-03 03:22:00,
2013-10-02 23:27:00,63.9,53.1,30.03,SW,225,1.0,3.0,68,0.00,,,0.00,meteohub,2013-10-03 03:27:00,
2013-10-02 23:32:00,63.9,53.1,30.03,NNE,22,0.0,3.0,68,0.00,,,0.00,meteohub,2013-10-03 03:32:00,
2013-10-02 23:37:00,63.7,53.2,30.03,WSW,248,1.0,3.0,69,0.00,,,0.00,meteohub,2013-10-03 03:37:00,
2013-10-02 23:42:00,63.7,52.9,30.03,WSW,248,0.0,3.0,68,0.00,,,0.00,meteohub,2013-10-03 03:42:00,
2013-10-02 23:47:00,63.9,53.1,30.03,South,180,1.0,3.0,68,0.00,,,0.00,meteohub,2013-10-03 03:47:00,
2013-10-02 23:52:00,63.7,52.9,30.03,ESE,112,0.0,1.0,68,0.00,,,0.00,meteohub,2013-10-03 03:52:00,
2013-10-02 23:57:00,63.9,53.1,30.03,WSW,248,0.0,2.0,68,0.00,,,0.00,meteohub,2013-10-03 03:57:00,